Location: Killarney Provincial Park Observatory
(46.0124°N, 81.4000°W)
Time: 18:31:54
(UTC-04:00)

Iridium 22 - Visible Passes

Search period start: 28 July 2014 00:00
Search period end: 07 August 2014 00:00
Orbit: 776 x 779 km, 86.4° (Epoch: 28 July)

Date Brightness Start Highest point End Pass type
(mag) Time Alt. Az. Time Alt. Az. Time Alt. Az.
28 Jul 6.3 03:10:18 25° SSE 03:12:58 48° E 03:17:58 10° NNE visible
28 Jul 6.9 04:50:47 14° WSW 04:53:57 23° WNW 04:58:05 10° NNW visible
29 Jul 7.1 02:37:05 19° ESE 02:39:39 27° E 02:43:59 10° NNE visible
29 Jul 6.2 04:17:35 24° SW 04:20:10 39° W 04:25:04 10° N visible
30 Jul 7.8 02:03:52 12° ESE 02:06:26 16° ENE 02:09:31 10° NE visible
30 Jul 5.5 03:44:21 35° SSW 03:46:32 70° W 03:51:45 10° N visible
31 Jul 5.7 03:11:08 39° SSE 03:13:00 68° E 03:18:12 10° N visible
31 Jul 7.3 04:51:37 12° WSW 04:54:16 17° WNW 04:57:36 10° NNW visible
01 Aug 6.6 02:37:53 30° SE 02:39:36 38° E 02:44:24 10° NNE visible
01 Aug 6.6 04:18:22 22° WSW 04:20:25 29° WNW 04:24:54 10° NNW visible
02 Aug 7.3 02:04:38 19° ESE 02:06:20 22° E 02:10:16 10° NNE visible
02 Aug 5.9 03:45:07 37° SW 03:46:41 49° W 03:51:45 10° N visible
03 Aug 7.9 01:31:23 11° E 01:33:10 13° ENE 01:35:21 10° NE visible
03 Aug 5.4 03:11:52 54° S 03:13:05 87° W 03:18:20 10° N visible
03 Aug 7.6 04:52:41 10° W 04:54:39 12° WNW 04:56:36 10° NW visible
04 Aug 6.0 02:38:35 46° SE 02:39:37 54° E 02:44:41 10° NNE visible
04 Aug 7.0 04:19:04 18° W 04:20:41 21° WNW 04:24:35 10° NNW visible
05 Aug 6.8 02:05:19 29° ESE 02:06:15 31° E 02:10:47 10° NNE visible
05 Aug 6.3 03:45:48 32° WSW 03:46:53 35° W 03:51:40 10° NNW visible
06 Aug 7.5 01:32:02 17° E 01:33:02 18° ENE 01:36:26 10° NE visible
06 Aug 5.5 03:12:31 56° WSW 03:13:12 62° W 03:18:23 10° N visible
